STARLINK-35788

Last updated on Mon Dec 15 2025 00:02:12 GMT+0000 (Coordinated Universal Time)

1 66831U 25280L 25348.25003472 -.01759352 00000+0 -13689-1 0 9997 2 66831 69.9950 194.5229 0003633 270.2113 47.6095 15.74500852 3143
UTC large
Height (km)
Speed (km/s)
/
Latitude / Longitude
Inclination (degrees)
Orbital Period (minutes)
Azimuth
Elevation
Range (km)
Doppler Factor

Next 0 passes for location: London (51.5072 / 0.1276)

Sorry there are no passes over London.